User: anonymous   Login
Location: Unspecified
(0.0000°N, 0.0000°E)
Time: 01:55:27
(UTC+00:00)
Language:

KITSAT 1 - Orbit

View from above orbital plane
View from above orbital plane
View from above satellite
View from above satellite

Ground track
Ground track

The orbit data is extracted from the following two-line orbital elements,

1 22077U 92052B   17147.93287490 -.00000045 +00000-0 +68038-4 0  9997
2 22077 066.0860 008.9817 0008211 329.9900 131.8901 12.86518114164419
Epoch (UTC): 27 May 2017 22:23:20
Eccentricity: 0.0008211
inclination: 66.0860°
perigee height: 1309 km
apogee height: 1321 km
right ascension of ascending node: 8.9817°
argument of perigee: 329.9900°
revolutions per day: 12.86518114
mean anomaly at epoch: 131.8901°
orbit number at epoch: 16441

The dashed part of the orbit path shows where the satellite is in the earth's shadow,  

DLR